OpenBCM V1.07b12 (Linux)

Packet Radio Mailbox

DB0FHN

[JN59NK Nuernberg]

 Login: GUEST





  
S57NML > KEPLER   08.04.03 17:20l 106 Lines 5598 Bytes #999 (0) @ WW
BID : 843S50BOX007
Read: DB0FHN GUEST
Subj: 2-line Amateur #03097-098
Path: DB0FHN<DB0RGB<DB0FSG<DB0GAP<DB0KFB<DB0CZ<DB0GE<LX0PAC<LX0HST<HA3PG<
      IK1ZNW<RZ6HXA<OK0PPL<OK0PAD<OK0PCC<OK0NAG<9A0BBS<S50BOX
Sent: 030408/1459z @:S50BOX.SVN.EU [Ljubljana ] bcm1.42
From: S57NML @ S50BOX.SVN.EU  (Andrej)
To:   KEPLER @ WW
X-Info: Received from 194.249.12.165 by HTTP-frontend

AO-7                    
1 07530U 74089B   03097.17658750 -.00000029  00000-0  10000-3 0  1618
2 07530 101.7490 144.4975 0012189 346.7119  13.3630 12.53565082299154
AO-10                   
1 14129U 83058B   03091.17918933 -.00000024  00000-0  10000-3 0  9244
2 14129  26.0433 157.4551 6010823 340.2144   4.1663  2.05867447120920
UO-11                   
1 14781U 84021B   03097.20205725  .00002306  00000-0  32552-3 0  1160
2 14781  98.1236  71.5201 0010705  58.7456 301.4803 14.78151557 23273
UO-14                   
1 20437U 90005B   03097.17703115  .00000205  00000-0  92816-4 0  2039
2 20437  98.2663 138.4991 0011861  60.2664 299.9697 14.31255251689304
AO-16                   
1 20439U 90005D   03096.69479442  .00000247  00000-0  10864-3 0  8775
2 20439  98.3068 149.9929 0011979  67.4955 292.7489 14.31492487689276
DO-17                   
1 20440U 90005E   03096.74440401  .00000277  00000-0  11927-3 0  7566
2 20440  98.3270 154.0437 0012075  67.0889 293.1564 14.31772399689355
WO-18                   
1 20441U 90005F   03097.86108948  .00000257  00000-0  11208-3 0   527
2 20441  98.3262 154.2970 0012705  66.2688 293.9826 14.31574271689492
LO-19                   
1 20442U 90005G   03096.71582573  .00000249  00000-0  10887-3 0  9994
2 20442  98.3384 156.3058 0012999  67.1507 293.1048 14.31737390689382
FO-20                   
1 20480U 90013C   03096.94433107 -.00000046  00000-0 -23522-4 0  4823
2 20480  99.0545  50.8013 0539479 256.5582  97.4869 12.83330959616598
RS-12/13                
1 21089U 91007A   03096.64213347  .00000079  00000-0  67697-4 0  5255
2 21089  82.9221 146.4643 0029659 152.0225 208.2532 13.74409323610254
UO-22                   
1 21575U 91050B   03096.92376978  .00000460  00000-0  16148-3 0  7670
2 21575  98.1470  86.6795 0007845 358.6536   1.4630 14.39191438615090
KO-23                   
1 22077U 92052B   03096.91346374 -.00000037  00000-0  10000-3 0  2618
2 22077  66.0860  26.5790 0015689 264.3550  95.5678 12.86410346500391
AO-27                   
1 22825U 93061C   03097.85743655  .00000216  00000-0  10140-3 0  5264
2 22825  98.2707 125.0845 0009271 112.4313 247.7853 14.28961586496772
IO-26                   
1 22826U 93061D   03097.60011721  .00000217  00000-0  10154-3 0  3297
2 22826  98.2693 125.9748 0009749 112.4883 247.7330 14.29186200496784
KO-25                   
1 22828U 93061F   03097.49901769  .00000177  00000-0  85083-4 0  4667
2 22828  98.2653 126.1446 0010947  93.8184 266.4259 14.29525244464977
POSAT                   
1 22829U 93061G   03097.49934022  .00000344  00000-0  14954-3 0  4929
2 22829  98.2692 126.7773 0010734  93.4559 266.7859 14.29795082496902
RS-15                   
1 23439U 94085A   03097.09861718 -.00000006  00000-0  10438-2 0  6932
2 23439  64.8178 324.6275 0146484 105.8321 255.8806 11.27548631340956
FO-29                   
1 24278U 96046B   03096.94866869  .00000035  00000-0  68950-4 0  5752
2 24278  98.5437 241.7495 0351456  93.6479 270.4914 13.52877849327716
TO-31                   
1 25396U 98043C   03096.91006359 -.00000043  00000-0  00000-0 0  8391
2 25396  98.6190 173.0684 0002222  26.4235 333.7067 14.23525624246262
GO-32                   
1 25397U 98043D   03096.95034384  .00000129  00000-0  76525-4 0  1593
2 25397  98.6142 171.9269 0001842  39.0799 321.0512 14.22971529246238
SO-33                   
1 25509U 98061B   03097.41775877  .00000440  00000-0  77360-4 0  8185
2 25509  31.4308 242.9379 0357596   0.6524 359.4550 14.27477980232153
PO-34                   
1 25520U 98064B   03096.88888896  .00004005  00000-0  20370-3 0  6678
2 25520  28.4594 268.6125 0006910 152.7250 207.3753 15.14145125244765
ISS (ZARYA)             
1 25544U 98067A   03098.11709376  .00014705  00000-0  19294-3 0  8662
2 25544  51.6360  12.1494 0004099  36.8430 103.0625 15.58781312250072
UO-36                   
1 25693U 99021A   03097.84529348  .00000733  00000-0  12439-3 0  8576
2 25693  64.5601 223.0157 0024868 313.5408  46.3624 14.76446613213385
OO-38                   
1 26063U 00004C   03096.74259246  .00000267  00000-0  11231-3 0  7576
2 26063 100.2033 159.8581 0036971 153.3735 206.9353 14.35503222167153
SO-41                   
1 26545U 00057A   03096.60576816  .00002071  00000-0  29253-3 0  4350
2 26545  64.5591 247.3401 0048535 231.3573 128.3140 14.79110675136183
MO-46                   
1 26548U 00057D   03096.75754516  .00002764  00000-0  36518-3 0  4399
2 26548  64.5570 239.2335 0041686 231.5688 128.1668 14.81440011136364
SO-42                   
1 26549U 00057E   03096.87872408  .00001780  00000-0  25982-3 0  7353
2 26549  64.5527 250.8585 0052942 230.7815 128.8597 14.78040697136138
AO-40                   
1 26609U 00072B   03093.12981620 -.00000366  00000-0  10000-3 0  3237
2 26609   8.4077  56.1468 7953400 160.1620 273.2516  1.25596418 11138
NO-44                   
1 26931U 01043C   03097.18397529  .00000251  00000-0  13115-3 0  4438
2 26931  67.0468 133.0310 0005702 273.1989  86.8457 14.29143516 79154
NO-45                   
1 26932U 01043D   03097.50608081  .00000176  00000-0  10143-3 0  4381
2 26932  67.0538 131.8957 0004028 259.3247 100.7400 14.29314969 79223
AO-49                   
1 27605U 02058A   03097.35987991  .00001133  00000-0  20209-3 0  1014
2 27605  64.5494  52.1070 0034870  91.7570 268.7517 14.71450921 15848
SO-50                   
1 27607U 02058C   03097.33352688  .00001765  00000-0  31240-3 0   942
2 27607  64.5485  52.9623 0036086  88.5493 271.9740 14.70017921 15821


73 de Andrej S57NML
tx:8/4/03 1459utc 


Read previous mail | Read next mail


 15.09.2025 23:53:08lGo back Go up